sat.trackr.live / text

‹ back to catalog

STARLINK-37868

NORAD 69334 · 2026-122F

PAYLOAD ACTIVE UNKNOWN

§ Identity

Operator
Country
US
Launch date
2026-06-03
Launch site
AFWTR
Launch vehicle
Mass (kg)
RCS (m²)

Purposes: comms

External: N2YO · Heavens-Above · Gunter

§ Orbital elements

Epoch: 2026-09-20T00:37:15.902400Z

Period
93.91 min
Inclination
97.2840°
Eccentricity
0.0001962
Mean motion
15.33401743 rev/d
Perigee alt
464.3 km
Apogee alt
467.0 km
Semi-major
6,843.8 km
B*
-2.5766e-4
RAAN
291.6058°
Arg perigee
54.5540°
Mean anomaly
305.5886°
Rev number
1,672

§ Raw data

STARLINK-378681 69334U 26122F   26263.02587850 -.00008373  00000+0 -25766-3 0  99932 69334  97.2840 291.6058 0001962  54.5540 305.5886 15.33401743 16721

JSON: /api/v1/satellites/69334 · /tle

For live sub-satellite position, see the globe view (requires WebGL).

§ Visibility from observer

Set your observer location to see the next 7 days of passes ≥ 10°. The values pass through the URL so the page stays shareable.

No JS? Fill the form by hand. The geolocation button needs JavaScript.